QPF
0.00 0.00 0.00 0.00 0.00 0.00 0.00 0.00 0.00 0.00 0.00 0.00 0.00 0.00 0.00 0.00 0.00 0.00 0.00 0.00 0.00 0.00 0.00 0.00 0.00 0.00 0.00 0.00 0.00 0.00 0.00 0.00 0.00 0.00 0.00 0.00 0.00 0.00 0.00 0.00 0.00 0.00 0.00
0.00 0.00 0.00 0.00 0.00 0.00 0.00 0.00 0.00 0.00 0.00 0.00 0.00 0.00 0.00 0.00 0.00 0.00 0.00 0.00 0.00 0.00 0.00 0.00 0.00 0.00 0.00 0.00 0.00 0.00 0.00 0.00 0.00 0.00 0.00 0.00 0.00 0.00 0.00 0.00 0.00 0.00 0.00
0.00 0.00 0.00 0.00 0.00 0.00 0.00 0.00 0.00 0.00 0.00 0.00 0.00 0.00 0.00 0.00 0.00 0.00 0.00 0.00 0.00 0.00 0.00 0.00 0.00 0.00 0.00 0.00 0.00 0.00 0.00 0.00 0.00 0.00 0.00 0.00 0.00 0.00 0.00 0.00 0.00 0.01 0.00
0.00 0.00 0.00 0.00 0.00 0.00 0.00 0.00 0.00 0.00 0.00 0.00 0.00 0.00 0.00 0.00 0.00 0.00 0.00 0.00 0.00 0.00 0.00 0.00 0.00 0.00 0.00 0.00 0.00 0.00 0.00 0.00 0.00 0.00 0.00 0.00 0.00 0.00 0.00 0.00 0.00 0.00 0.00
0.00 0.00 0.00 0.00 0.00 0.00 0.00 0.00 0.00 0.00 0.00 0.00 0.00 0.00 0.00 0.00 0.00 0.00 0.00 0.00 0.00 0.00 0.00 0.00 0.00 0.00 0.00 0.00 0.00 0.00 0.00 0.00 0.00 0.00 0.00 0.00 0.00 0.00 0.00 0.00 0.00 0.00 0.00
0.00 0.00 0.00 0.00 0.00 0.00 0.00 0.00 0.00 0.00 0.00 0.00 0.00 0.00 0.00 0.00 0.00 0.00 0.00 0.00 0.00 0.00 0.00 0.00 0.00 0.00 0.00 0.00 0.00 0.00 0.00 0.00 0.00 0.00 0.00 0.00 0.00 0.00 0.00 0.00 0.00 0.00 0.00
0.00 0.00 0.00 0.00 0.00 0.00 0.00 0.00 0.00 0.00 0.00 0.00 0.00 0.00 0.00 0.00 0.00 0.00 0.00 0.00 0.00 0.00 0.00 0.00 0.00 0.00 0.00 0.00 0.00 0.00 0.00 0.00 0.00 0.00 0.00 0.00 0.00 0.00 0.00 0.00 0.00 0.00 0.00
0.00 0.00 0.00 0.00 0.00 0.00 0.00 0.00 0.00 0.00 0.00 0.00 0.00 0.00 0.00 0.00 0.00 0.00 0.00 0.00 0.00 0.00 0.00 0.00 0.00 0.00 0.00 0.00 0.00 0.00 0.00 0.00 0.00 0.00 0.00 0.00 0.00 0.00 0.00 0.00 0.00 0.00 0.00
0.00 0.00 0.00 0.00 0.00 0.00 0.00 0.00 0.00 0.00 0.00 0.00 0.00 0.00 0.00 0.00 0.00 0.00 0.00 0.00 0.00 0.00 0.00 0.00 0.00 0.00 0.00 0.00 0.00 0.00 0.00 0.00 0.00 0.00 0.00 0.00 0.00 0.00 0.00 0.00 0.00 0.00 0.00
0.00 0.00 0.00 0.00 0.00 0.00 0.00 0.00 0.00 0.00 0.00 0.00 0.00 0.00 0.00 0.00 0.00 0.00 0.00 0.00 0.00 0.00 0.00 0.00 0.00 0.00 0.00 0.00 0.00 0.00 0.00 0.00 0.00 0.00 0.00 0.00 0.00 0.00 0.00 0.00 0.00 0.00 0.00
0.00 0.00 0.00 0.00 0.00 0.00 0.00 0.00 0.00 0.00 0.00 0.00 0.00 0.00 0.00 0.00 0.00 0.00 0.00 0.00 0.00 0.00 0.00 0.00 0.00 0.00 0.00 0.00 0.00 0.00 0.00 0.00 0.00 0.00 0.00 0.00 0.00 0.00 0.00 0.00 0.00 0.00 0.00
0.00 0.00 0.00 0.00 0.00 0.00 0.00 0.00 0.00 0.00 0.00 0.00 0.00 0.00 0.00 0.00 0.00 0.00 0.00 0.00 0.00 0.00 0.00 0.00 0.00 0.00 0.00 0.00 0.00 0.00 0.00 0.00 0.00 0.00 0.00 0.00 0.00 0.00 0.00 0.00 0.00 0.00 0.00
0.00 0.00 0.00 0.00 0.00 0.00 0.00 0.00 0.00 0.00 0.00 0.00 0.00 0.00 0.00 0.00 0.00 0.00 0.00 0.00 0.00 0.00 0.00 0.00 0.00 0.00 0.00 0.00 0.00 0.00 0.00 0.00 0.00 0.00 0.00 0.00 0.00 0.00 0.00 0.00 0.00 0.00 0.00
0.00 0.00 0.00 0.00 0.00 0.00 0.00 0.00 0.00 0.00 0.00 0.00 0.00 0.00 0.00 0.00 0.00 0.00 0.00 0.00 0.00 0.00 0.00 0.01 0.00 0.00 0.00 0.00 0.00 0.00 0.00 0.00 0.00 0.00 0.00 0.00 0.00 0.00 0.00 0.00 0.00 0.00 0.00
0.00 0.00 0.00 0.00 0.00 0.00 0.00 0.00 0.00 0.00 0.00 0.00 0.00 0.00 0.00 0.00 0.00 0.00 0.00 0.00 0.00 0.00 0.00 0.00 0.00 0.00 0.00 0.00 0.00 0.00 0.00 0.00 0.00 0.00 0.00 0.00 0.00 0.00 0.00 0.00 0.00 0.00 0.00
0.00 0.00 0.00 0.00 0.00 0.00 0.00 0.00 0.00 0.00 0.00 0.00 0.00 0.00 0.00 0.00 0.00 0.00 0.00 0.00 0.00 0.00 0.00 0.00 0.00 0.00 0.00 0.00 0.00 0.00 0.00 0.00 0.00 0.00 0.00 0.00 0.00 0.00 0.00 0.00 0.00 0.00 0.00
0.00 0.00 0.00 0.00 0.00 0.00 0.00 0.00 0.00 0.00 0.00 0.00 0.00 0.00 0.00 0.00 0.00 0.00 0.00 0.00 0.00 0.00 0.00 0.00 0.00 0.00 0.00 0.00 0.00 0.00 0.00 0.00 0.00 0.00 0.00 0.00 0.00 0.00 0.00 0.00 0.00 0.00 0.00
0.00 0.00 0.00 0.00 0.00 0.00 0.00 0.00 0.00 0.00 0.00 0.00 0.00 0.00 0.00 0.00 0.00 0.00 0.00 0.00 0.00 0.00 0.00 0.00 0.00 0.00 0.00 0.00 0.00 0.00 0.00 0.00 0.00 0.00 0.00 0.00 0.00 0.00 0.00 0.00 0.00 0.00 0.00
0.00 0.00 0.00 0.00 0.00 0.00 0.00 0.00 0.00 0.00 0.00 0.00 0.00 0.00 0.00 0.00 0.00 0.00 0.00 0.00 0.00 0.00 0.00 0.00 0.00 0.00 0.00 0.00 0.00 0.00 0.00 0.00 0.00 0.00 0.00 0.00 0.00 0.00 0.00 0.00 0.00 0.00 0.00
0.00 0.00 0.00 0.00 0.00 0.00 0.00 0.00 0.00 0.00 0.00 0.00 0.00 0.00 0.00 0.00 0.01 0.01 0.00 0.00 0.00 0.00 0.00 0.00 0.00 0.00 0.00 0.00 0.00 0.00 0.00 0.00 0.00 0.00 0.00 0.00 0.00 0.00 0.00 0.00 0.00 0.00 0.00
0.00 0.00 0.00 0.00 0.00 0.00 0.00 0.00 0.00 0.00 0.00 0.00 0.00 0.00 0.00 0.00 0.00 0.00 0.00 0.00 0.00 0.00 0.00 0.00 0.00 0.00 0.00 0.00 0.00 0.00 0.00 0.00 0.00 0.00 0.00 0.00 0.00 0.00 0.00 0.00 0.00 0.00 0.00
0.00 0.00 0.00 0.00 0.00 0.00 0.00 0.00 0.00 0.00 0.00 0.00 0.00 0.00 0.00 0.00 0.00 0.00 0.00 0.00 0.00 0.00 0.00 0.00 0.00 0.00 0.00 0.00 0.00 0.00 0.00 0.00 0.00 0.00 0.00 0.00 0.00 0.00 0.00 0.00 0.00 0.00 0.00
0.00 0.00 0.00 0.00 0.00 0.00 0.00 0.00 0.00 0.00 0.00 0.00 0.00 0.00 0.00 0.00 0.00 0.00 0.00 0.00 0.00 0.00 0.00 0.00 0.00 0.00 0.00 0.00 0.00 0.00 0.00 0.00 0.00 0.00 0.00 0.00 0.00 0.00 0.00 0.00 0.00 0.00 0.00
0.00 0.00 0.00 0.00 0.00 0.00 0.00 0.00 0.00 0.00 0.00 0.00 0.00 0.00 0.00 0.00 0.00 0.00 0.00 0.00 0.00 0.00 0.00 0.00 0.00 0.00 0.00 0.00 0.00 0.00 0.00 0.00 0.00 0.00 0.00 0.00 0.00 0.00 0.00 0.00 0.00 0.00 0.00
0.00 0.00 0.00 0.00 0.00 0.00 0.00 0.00 0.00 0.00 0.00 0.00 0.00 0.00 0.00 0.00 0.00 0.00 0.00 0.00 0.00 0.00 0.00 0.00 0.00 0.00 0.00 0.00 0.00 0.00 0.00 0.00 0.00 0.00 0.00 0.00 0.00 0.00 0.00 0.00 0.00 0.00 0.00
0.00 0.00 0.00 0.00 0.00 0.00 0.00 0.00 0.00 0.00 0.00 0.00 0.00 0.00 0.00 0.00 0.00 0.00 0.00 0.00 0.00 0.00 0.00 0.00 0.00 0.00 0.00 0.00 0.00 0.00 0.00 0.00 0.00 0.00 0.00 0.00 0.00 0.00 0.00 0.00 0.00 0.00 0.00
MSLP
1016.06 1016.20 1016.27 1016.45 1016.91 1017.14 1017.41 1017.80 1018.01 1018.20 1018.41 1018.62 1018.91 1019.18 1019.29 1019.53 1019.90 1020.31 1020.33 1020.55 1020.88 1021.06 1021.43 1021.50 1021.65 1021.79 1021.69 1021.49 1021.46 1021.41 1021.07 1021.25 1021.43 1022.63 1023.62 1025.39 1026.38 1027.00 1028.16 1028.87 1029.71 1029.99 1030.57
1015.47 1015.80 1016.17 1016.65 1017.04 1017.03 1016.99 1017.41 1017.90 1018.02 1018.13 1018.26 1018.55 1018.88 1019.18 1019.41 1019.79 1020.19 1020.43 1021.00 1020.97 1021.21 1021.43 1021.72 1021.88 1021.79 1021.71 1021.84 1021.78 1021.60 1021.55 1021.41 1021.49 1022.64 1024.01 1025.37 1026.17 1026.74 1027.79 1028.95 1029.43 1029.70 1030.44
1015.26 1015.56 1016.01 1016.49 1016.77 1016.94 1016.97 1017.01 1017.40 1017.59 1017.82 1018.03 1018.47 1018.77 1018.91 1019.32 1019.72 1020.03 1020.50 1020.87 1021.28 1021.63 1021.85 1021.71 1021.77 1021.77 1021.82 1021.91 1022.13 1021.92 1022.02 1022.27 1022.06 1022.57 1023.72 1025.09 1026.24 1026.87 1027.73 1028.39 1029.11 1030.14 1030.56
1015.29 1015.36 1015.78 1016.22 1016.77 1017.35 1017.52 1017.63 1017.58 1017.52 1017.87 1018.03 1018.15 1018.59 1018.96 1019.28 1019.58 1019.89 1020.43 1021.09 1021.39 1021.85 1022.05 1022.11 1022.10 1022.05 1022.21 1022.46 1022.55 1022.85 1023.05 1022.91 1023.10 1023.03 1023.83 1024.71 1025.87 1026.65 1027.48 1028.33 1029.46 1030.19 1030.71
1015.73 1015.98 1016.40 1016.85 1017.40 1017.91 1018.07 1018.16 1018.27 1018.07 1017.96 1018.16 1018.29 1018.58 1018.92 1019.31 1019.76 1020.23 1020.67 1020.96 1021.45 1022.13 1022.38 1022.33 1022.56 1023.13 1023.73 1023.62 1023.17 1023.11 1023.59 1023.63 1023.89 1023.86 1024.55 1025.16 1026.03 1026.63 1027.19 1027.98 1028.73 1029.37 1030.61
1016.49 1016.85 1017.02 1017.24 1017.51 1017.92 1018.21 1018.41 1017.99 1018.48 1018.51 1018.55 1018.66 1018.75 1019.08 1019.58 1020.23 1020.57 1020.76 1021.19 1021.97 1022.34 1022.36 1022.66 1023.39 1024.13 1024.19 1024.37 1024.16 1024.10 1024.31 1024.07 1024.02 1024.48 1024.98 1025.22 1025.71 1026.37 1026.99 1027.49 1027.79 1028.36 1029.65
1016.84 1017.14 1017.13 1017.37 1017.71 1017.91 1018.41 1018.67 1018.27 1018.44 1018.89 1019.27 1019.56 1019.49 1019.84 1020.19 1020.88 1021.17 1021.46 1021.84 1022.24 1022.35 1022.49 1022.64 1023.13 1023.86 1024.14 1024.37 1024.91 1024.89 1025.00 1025.06 1025.02 1024.74 1024.37 1024.58 1024.81 1025.47 1026.00 1026.54 1026.79 1027.62 1027.51
1017.63 1017.92 1018.08 1018.17 1018.71 1018.83 1018.98 1019.31 1019.68 1019.62 1019.67 1020.33 1020.54 1020.60 1020.68 1020.99 1021.56 1021.77 1022.00 1022.20 1022.41 1022.70 1022.96 1023.29 1023.48 1024.15 1024.42 1024.61 1024.67 1025.01 1025.19 1025.44 1025.26 1024.83 1024.24 1024.46 1024.55 1025.14 1025.58 1026.12 1026.61 1027.08 1028.23
1018.81 1018.91 1019.31 1019.57 1019.68 1019.79 1019.70 1019.94 1020.49 1020.42 1020.23 1020.51 1020.89 1021.06 1021.21 1021.54 1022.01 1022.26 1022.30 1022.60 1023.03 1023.42 1023.85 1024.09 1024.11 1024.51 1025.26 1025.21 1024.87 1025.35 1025.54 1026.05 1026.18 1026.05 1025.88 1025.81 1025.97 1026.08 1026.13 1026.41 1026.69 1027.92 1029.19
1019.16 1019.31 1019.43 1019.37 1019.45 1019.93 1020.02 1020.41 1020.74 1020.86 1020.70 1020.63 1021.27 1021.49 1021.67 1021.94 1022.39 1022.68 1022.67 1022.85 1023.32 1023.78 1024.27 1024.77 1025.20 1025.12 1025.41 1025.58 1025.29 1025.37 1025.62 1026.36 1026.69 1026.82 1026.88 1026.99 1027.15 1027.29 1027.45 1027.30 1027.65 1027.85 1028.48
1019.32 1019.44 1019.69 1019.91 1019.93 1020.33 1020.31 1020.33 1021.04 1021.04 1020.90 1021.15 1021.61 1021.84 1021.99 1022.27 1022.66 1022.96 1023.12 1023.06 1023.29 1023.72 1024.19 1024.58 1024.90 1025.54 1025.74 1025.80 1025.61 1025.68 1026.06 1026.83 1027.04 1027.15 1027.35 1027.65 1027.87 1028.23 1028.38 1028.60 1028.67 1028.26 1028.72
1019.32 1019.43 1019.89 1020.17 1020.31 1020.61 1020.69 1020.64 1021.08 1020.98 1021.11 1021.43 1021.81 1022.01 1022.26 1022.47 1022.84 1023.24 1023.50 1023.55 1023.66 1023.86 1024.22 1024.77 1025.15 1025.73 1025.99 1026.33 1026.01 1026.51 1027.02 1026.97 1027.03 1027.20 1027.56 1028.06 1028.37 1028.75 1029.23 1029.66 1029.88 1029.97 1029.87
1018.61 1019.01 1019.66 1019.76 1020.19 1020.71 1020.58 1020.84 1021.01 1021.11 1021.14 1021.43 1021.74 1022.02 1022.32 1022.67 1023.05 1023.47 1023.81 1024.03 1024.23 1024.33 1024.60 1024.98 1025.60 1026.10 1026.49 1026.47 1026.90 1027.21 1027.13 1027.14 1027.33 1027.47 1027.91 1028.45 1029.03 1029.47 1029.77 1030.17 1030.46 1030.61 1030.66
1018.82 1019.06 1019.22 1019.56 1020.00 1020.50 1020.63 1020.60 1020.65 1020.91 1021.13 1021.43 1021.66 1021.92 1022.25 1022.60 1023.07 1023.52 1023.96 1024.39 1024.80 1024.81 1025.25 1025.52 1025.91 1026.27 1026.35 1027.00 1027.58 1027.50 1027.39 1027.52 1027.62 1028.03 1028.64 1029.17 1029.34 1029.46 1029.82 1029.87 1030.11 1030.41 1030.79
1018.63 1019.22 1019.19 1019.26 1019.78 1020.35 1020.54 1020.51 1020.69 1020.98 1021.13 1021.29 1021.56 1021.88 1022.27 1022.64 1023.07 1023.51 1024.00 1024.37 1024.71 1024.98 1025.29 1025.79 1026.28 1026.42 1026.77 1027.12 1027.39 1027.64 1027.92 1028.10 1028.17 1028.57 1028.94 1029.13 1029.27 1029.54 1029.78 1029.89 1030.05 1030.25 1030.47
1018.21 1018.91 1018.73 1019.09 1019.71 1020.14 1020.49 1021.00 1021.50 1021.53 1021.75 1021.80 1021.95 1022.18 1022.69 1022.95 1023.61 1024.05 1024.43 1024.80 1025.27 1025.58 1025.58 1025.79 1026.10 1026.33 1026.59 1026.93 1027.23 1027.52 1027.73 1028.00 1028.33 1028.55 1028.71 1028.90 1029.09 1029.33 1029.63 1029.88 1030.05 1030.19 1030.47
1017.79 1018.29 1018.47 1019.00 1019.45 1019.93 1020.29 1020.57 1021.13 1022.01 1022.16 1022.33 1022.61 1022.81 1022.97 1023.41 1023.98 1024.37 1024.68 1025.13 1025.52 1025.87 1025.50 1025.69 1025.86 1026.13 1026.46 1026.81 1027.20 1027.51 1027.81 1028.15 1028.57 1028.64 1028.73 1028.84 1029.03 1029.27 1029.69 1030.00 1030.21 1030.47 1030.77
1017.73 1018.13 1018.35 1018.72 1019.33 1019.85 1020.15 1020.52 1021.01 1021.43 1021.79 1022.51 1023.04 1023.13 1023.33 1023.65 1024.16 1024.56 1024.93 1025.45 1025.89 1025.91 1025.49 1025.62 1025.87 1026.17 1026.44 1026.73 1027.11 1027.36 1027.73 1028.28 1028.34 1028.51 1028.81 1029.17 1029.44 1029.64 1029.78 1029.96 1030.27 1030.57 1030.97
1017.75 1018.21 1018.43 1018.90 1019.47 1019.80 1020.12 1020.53 1020.89 1021.24 1021.74 1022.28 1022.90 1023.38 1023.71 1023.96 1024.32 1024.72 1025.16 1024.89 1025.16 1025.37 1025.46 1025.47 1025.65 1025.85 1026.14 1026.53 1027.00 1027.39 1027.77 1028.08 1028.48 1028.73 1028.96 1029.37 1029.68 1029.76 1029.95 1030.23 1030.56 1030.99 1031.30
1017.76 1018.21 1018.64 1019.05 1019.46 1019.81 1020.12 1020.38 1020.66 1020.98 1021.54 1022.08 1022.48 1023.01 1023.50 1023.87 1024.17 1024.70 1024.97 1025.09 1025.25 1025.24 1025.35 1025.46 1025.73 1025.94 1026.22 1026.59 1027.07 1027.46 1027.83 1028.34 1028.68 1028.86 1029.14 1029.47 1029.77 1029.91 1030.23 1030.51 1030.81 1031.17 1031.23
1017.66 1018.30 1018.79 1019.15 1019.41 1019.75 1020.00 1020.18 1020.46 1020.82 1021.27 1021.78 1022.29 1022.86 1023.25 1023.45 1023.80 1024.27 1024.56 1025.00 1025.03 1025.03 1025.31 1025.38 1025.73 1026.09 1026.40 1026.67 1026.93 1027.37 1027.65 1028.09 1028.51 1028.78 1029.03 1029.37 1029.74 1029.89 1030.21 1030.53 1030.83 1031.03 1031.33
1017.75 1018.30 1018.75 1019.04 1019.35 1019.65 1019.76 1020.00 1020.32 1020.73 1021.16 1021.69 1022.34 1022.95 1023.36 1023.31 1023.76 1024.17 1024.60 1025.01 1025.22 1025.18 1025.36 1025.57 1025.69 1025.95 1026.20 1026.52 1026.90 1027.36 1027.70 1028.06 1028.51 1028.86 1029.15 1029.48 1029.81 1030.02 1030.35 1030.58 1030.87 1031.21 1031.56
1017.85 1018.25 1018.65 1018.93 1019.19 1019.51 1019.71 1019.93 1020.34 1020.74 1021.16 1021.69 1022.21 1022.77 1023.21 1023.48 1023.81 1024.16 1024.66 1025.09 1025.25 1025.48 1025.57 1025.76 1026.00 1026.15 1026.53 1026.95 1027.19 1027.39 1027.56 1027.95 1028.39 1028.81 1029.17 1029.57 1029.83 1029.98 1030.39 1030.68 1031.09 1031.33 1031.57
1018.04 1018.43 1018.61 1018.93 1019.23 1019.45 1019.79 1020.08 1020.45 1020.85 1021.27 1021.81 1022.21 1022.60 1023.04 1023.50 1023.91 1024.34 1024.77 1025.18 1025.55 1025.69 1025.96 1026.16 1026.19 1026.36 1026.77 1027.11 1027.38 1027.58 1027.64 1028.05 1028.53 1029.01 1029.33 1029.52 1029.79 1030.22 1030.43 1030.81 1031.14 1031.46 1031.71
1018.19 1018.49 1018.76 1018.98 1019.23 1019.46 1019.85 1020.19 1020.60 1021.04 1021.43 1021.83 1022.22 1022.63 1023.07 1023.49 1023.91 1024.37 1024.80 1025.33 1025.46 1025.73 1026.04 1026.23 1026.40 1026.80 1027.08 1027.24 1027.41 1027.68 1028.14 1028.61 1028.85 1029.03 1029.46 1029.60 1029.77 1030.19 1030.61 1030.94 1031.16 1031.43 1031.85
1018.22 1018.53 1018.87 1019.11 1019.21 1019.46 1019.79 1020.15 1020.55 1020.95 1021.37 1021.81 1022.26 1022.66 1023.05 1023.43 1023.84 1024.31 1024.79 1025.23 1025.53 1025.70 1026.05 1026.28 1026.59 1026.81 1027.25 1027.52 1027.84 1028.20 1028.59 1028.88 1029.13 1029.38 1029.44 1029.53 1029.91 1030.33 1030.69 1030.99 1031.32 1031.46 1031.82
Thickness
5583 5579 5576 5572 5565 5560 5553 5545 5537 5531 5526 5520 5513 5507 5503 5498 5492 5488 5488 5486 5483 5481 5478 5476 5474 5471 5472 5473 5472 5472 5475 5474 5474 5467 5460 5445 5439 5435 5428 5424 5419 5417 5415
5577 5572 5566 5560 5555 5550 5545 5535 5524 5517 5512 5507 5501 5495 5491 5487 5481 5476 5474 5468 5468 5465 5463 5460 5458 5457 5457 5454 5453 5455 5454 5456 5454 5448 5437 5427 5423 5420 5415 5408 5405 5406 5401
5568 5563 5557 5550 5543 5537 5530 5524 5515 5509 5502 5496 5489 5484 5480 5474 5469 5466 5460 5456 5452 5449 5447 5448 5446 5444 5443 5441 5436 5437 5435 5431 5432 5430 5422 5411 5404 5402 5399 5395 5393 5388 5384
5556 5552 5545 5536 5527 5518 5513 5506 5501 5497 5489 5484 5480 5472 5467 5462 5458 5455 5449 5442 5439 5434 5432 5432 5431 5430 5427 5423 5419 5413 5408 5408 5405 5407 5402 5397 5389 5386 5383 5379 5373 5370 5368
5539 5533 5524 5515 5505 5495 5489 5485 5480 5477 5475 5470 5465 5460 5455 5450 5445 5439 5434 5431 5427 5419 5417 5417 5413 5407 5402 5400 5401 5398 5389 5386 5383 5384 5380 5375 5369 5367 5366 5361 5358 5360 5351
5518 5510 5503 5496 5489 5481 5474 5469 5469 5461 5458 5454 5450 5447 5442 5435 5427 5424 5422 5417 5409 5404 5403 5400 5392 5385 5382 5379 5376 5373 5368 5368 5367 5361 5357 5356 5353 5352 5349 5348 5351 5350 5343
5501 5494 5489 5482 5475 5470 5463 5456 5455 5450 5442 5435 5429 5427 5422 5418 5410 5406 5403 5398 5392 5390 5387 5385 5379 5369 5364 5360 5355 5352 5347 5343 5342 5344 5347 5347 5349 5343 5344 5342 5345 5342 5348
5478 5471 5466 5461 5453 5449 5444 5436 5428 5425 5421 5413 5408 5405 5402 5399 5392 5390 5386 5381 5378 5372 5368 5362 5359 5351 5346 5343 5341 5335 5329 5322 5321 5326 5333 5335 5335 5333 5332 5330 5329 5332 5324
5451 5446 5439 5434 5428 5424 5421 5416 5409 5406 5404 5400 5394 5390 5387 5383 5377 5373 5370 5365 5358 5351 5345 5340 5337 5332 5324 5322 5323 5316 5310 5301 5301 5305 5311 5314 5315 5314 5315 5315 5316 5310 5302
5438 5431 5426 5423 5419 5411 5407 5400 5395 5391 5389 5388 5380 5376 5372 5367 5361 5356 5353 5348 5341 5333 5326 5318 5313 5310 5306 5302 5303 5301 5297 5289 5288 5290 5292 5294 5294 5295 5296 5298 5297 5301 5300
5421 5416 5411 5406 5402 5395 5392 5390 5381 5379 5378 5372 5366 5362 5358 5353 5346 5341 5335 5331 5325 5316 5308 5300 5295 5289 5286 5284 5283 5283 5280 5276 5275 5276 5277 5276 5276 5276 5278 5280 5282 5287 5286
5406 5402 5395 5390 5385 5379 5377 5375 5369 5369 5365 5359 5353 5349 5344 5339 5332 5325 5318 5312 5305 5297 5289 5279 5272 5268 5268 5266 5266 5263 5262 5265 5266 5266 5265 5264 5265 5264 5264 5263 5264 5266 5268
5397 5391 5384 5380 5373 5367 5367 5362 5359 5355 5353 5348 5343 5338 5332 5326 5319 5311 5303 5295 5286 5279 5272 5265 5258 5255 5253 5254 5251 5250 5253 5254 5255 5255 5255 5253 5252 5251 5251 5250 5251 5252 5255
5381 5375 5372 5367 5362 5357 5354 5352 5351 5347 5342 5338 5333 5328 5323 5317 5309 5301 5291 5281 5271 5265 5257 5252 5249 5247 5247 5244 5241 5243 5245 5246 5247 5245 5243 5240 5242 5244 5243 5244 5247 5247 5248
5368 5362 5360 5358 5353 5346 5343 5342 5339 5335 5331 5329 5324 5319 5313 5308 5301 5292 5282 5274 5267 5260 5254 5248 5244 5242 5240 5238 5237 5237 5236 5237 5237 5236 5235 5236 5238 5238 5238 5239 5241 5242 5244
5359 5354 5355 5350 5343 5339 5335 5329 5322 5320 5316 5314 5311 5308 5301 5297 5290 5283 5275 5267 5260 5256 5253 5250 5246 5244 5243 5240 5238 5237 5236 5235 5233 5233 5234 5234 5235 5235 5235 5235 5236 5237 5236
5354 5349 5347 5341 5337 5333 5329 5327 5319 5308 5304 5301 5297 5294 5292 5288 5281 5276 5271 5264 5259 5254 5255 5252 5250 5247 5244 5241 5238 5235 5233 5232 5229 5230 5230 5232 5232 5232 5230 5228 5228 5227 5225
5342 5339 5339 5336 5331 5326 5323 5318 5312 5306 5300 5292 5287 5286 5284 5280 5275 5270 5264 5259 5254 5252 5253 5251 5246 5243 5241 5239 5236 5234 5232 5228 5229 5228 5226 5224 5222 5221 5221 5220 5219 5217 5215
5331 5330 5330 5327 5322 5319 5316 5311 5306 5302 5296 5290 5284 5279 5275 5271 5267 5262 5257 5257 5254 5250 5247 5245 5243 5240 5237 5234 5230 5227 5224 5222 5219 5217 5216 5213 5211 5211 5210 5208 5206 5203 5201
5322 5321 5321 5318 5316 5313 5309 5306 5303 5300 5294 5288 5284 5278 5272 5267 5263 5256 5252 5249 5245 5243 5240 5237 5233 5230 5227 5223 5219 5216 5213 5209 5206 5205 5203 5200 5198 5198 5196 5194 5192 5189 5189
5318 5315 5313 5312 5310 5307 5305 5303 5301 5297 5292 5287 5281 5274 5269 5265 5260 5253 5248 5241 5238 5235 5230 5227 5222 5218 5214 5212 5209 5205 5203 5199 5196 5194 5192 5189 5186 5186 5183 5181 5179 5178 5175
5312 5310 5308 5307 5305 5302 5302 5301 5298 5294 5289 5283 5275 5268 5262 5261 5255 5249 5242 5235 5229 5225 5220 5216 5212 5209 5206 5203 5199 5195 5192 5189 5185 5182 5180 5177 5174 5172 5169 5167 5165 5162 5159
5308 5306 5304 5303 5301 5298 5298 5297 5293 5289 5284 5278 5271 5265 5259 5255 5249 5243 5235 5227 5221 5216 5212 5207 5204 5201 5197 5193 5190 5187 5185 5182 5178 5175 5171 5167 5165 5163 5159 5156 5152 5150 5148
5303 5301 5301 5298 5296 5295 5292 5290 5287 5283 5279 5272 5267 5262 5257 5250 5244 5236 5229 5221 5214 5209 5205 5201 5198 5196 5191 5188 5184 5182 5180 5176 5172 5167 5164 5161 5158 5154 5151 5147 5144 5140 5138
5297 5296 5294 5293 5291 5290 5287 5285 5281 5277 5273 5268 5263 5258 5252 5246 5239 5232 5224 5216 5211 5205 5200 5197 5193 5189 5186 5183 5180 5176 5172 5168 5165 5162 5158 5155 5152 5148 5143 5139 5136 5133 5128
5292 5290 5288 5287 5287 5285 5284 5281 5278 5274 5269 5264 5259 5254 5248 5242 5236 5228 5221 5214 5207 5202 5196 5192 5188 5184 5180 5176 5173 5169 5165 5162 5158 5154 5151 5148 5144 5139 5134 5130 5125 5123 5118